KANSAI_INTL current weather conditions

sailwx.info

Wind from 030 at 6 knots

Air temperature 6.0° C
Visibility: greater than 5.4 NM
Dewpoint 1.0° C

Last reported at 2017-Dec-14 17:00 UTC.
Time now 2017-Dec-15 00:47 UTC

Location: N 34°25' E 135°15'.
View on Google Maps.

See reports from other nearby stations

  
Tides and Currents Weather Stations Pressure Air Temp Water Temp Dewpoint Dewpoint Depression Visibility Wind Speed Wind Dir Waves Ship Positions
date/time (UTC)wind fromknots sea level pressurealtimeterstation pressurevisibilityair tempwater tempwave heightnotes
2017-Dec-14 18:00 090 6 5.4 6.0
2017-Dec-14 17:30 090 6 5.4 6.0
2017-Dec-14 17:00 030 6 5.4 6.0
2017-Dec-14 16:30 360 7 5.4 6.0
2017-Dec-14 16:00 330 9 5.4 6.0
2017-Dec-14 15:30 340 11 5.4 6.0
2017-Dec-14 15:00 330 11 5.4 7.0
2017-Dec-14 14:30 340 8 5.4 7.0
2017-Dec-14 14:00 360 8 5.4 7.0
2017-Dec-14 13:30 350 7 5.4 7.0
2017-Dec-14 13:00 350 8 5.4 6.0
2017-Dec-14 12:30 350 8 5.4 6.0
2017-Dec-14 12:00 350 8 5.4 7.0
2017-Dec-14 11:30 360 11 5.4 7.0
2017-Dec-14 11:00 020 9 5.4 7.0
2017-Dec-14 10:30 360 12 5.4 7.0
2017-Dec-14 10:00 360 14 5.4 7.0
2017-Dec-14 09:30 360 13 5.4 7.0
2017-Dec-14 09:00 340 12 5.4 7.0
2017-Dec-14 08:30 360 13 5.4 7.0
2017-Dec-14 08:00 350 15 5.4 7.0
2017-Dec-14 07:30 350 17 5.4 7.0
2017-Dec-14 07:00 360 17 5.4 8.0
2017-Dec-14 06:30 350 15 5.4 8.0
2017-Dec-14 06:00 340 17 5.4 8.0
2017-Dec-14 05:30 340 15 5.4 9.0
2017-Dec-14 05:00 340 17 5.4 9.0
2017-Dec-14 04:30 340 17 5.4 9.0
2017-Dec-14 04:00 340 18 5.4 9.0
2017-Dec-14 03:30 340 15 5.4 8.0
2017-Dec-14 03:00 340 19 5.4 8.0
2017-Dec-14 02:30 350 15 5.4 8.0
2017-Dec-14 02:00 340 19 5.4 8.0
2017-Dec-14 01:30 330 15 5.4 7.0
2017-Dec-14 01:00 330 20 5.4 7.0
2017-Dec-14 00:30 330 17 5.4 6.0
2017-Dec-14 00:00 320 15 5.4 6.0
2017-Dec-13 23:30 340 14 5.4 6.0
2017-Dec-13 23:00 340 17 5.4 5.0
2017-Dec-13 22:30 340 13 5.4 5.0
2017-Dec-13 22:00 350 12 5.4 4.0
2017-Dec-13 21:30 330 13 5.4 5.0
2017-Dec-13 21:00 340 12 5.4 5.0
2017-Dec-13 20:30 310 9 5.4 4.0
2017-Dec-13 20:00 340 13 5.4 5.0
2017-Dec-13 19:30 330 14 5.4 5.0
2017-Dec-13 19:00 320 14 5.4 5.0
2017-Dec-13 18:30 330 12 5.4 5.0
2017-Dec-13 18:00 320 8 5.4 5.0
2017-Dec-13 17:30 310 11 5.4 5.0
2017-Dec-13 17:00 320 13 5.4 4.0
2017-Dec-13 16:30 320 13 5.4 5.0
2017-Dec-13 16:00 320 9 5.4 4.0
2017-Dec-13 15:30 320 11 5.4 5.0
2017-Dec-13 15:00 310 9 5.4 5.0
2017-Dec-13 14:30 320 11 5.4 5.0
2017-Dec-13 14:00 310 8 5.4 4.0
2017-Dec-13 13:30 320 11 5.4 5.0
2017-Dec-13 13:00 310 13 5.4 5.0
2017-Dec-13 12:30 310 14 5.4 5.0
2017-Dec-13 12:00 310 13 5.4 6.0
2017-Dec-13 11:30 300 15 5.4 6.0
2017-Dec-13 11:00 310 17 5.4 6.0
2017-Dec-13 10:30 310 18 5.4 6.0
2017-Dec-13 10:00 310 18 5.4 6.0
2017-Dec-13 09:30 320 19 5.4 7.0
2017-Dec-13 09:00 300 20 5.4 7.0
2017-Dec-13 08:30 300 20 5.4 7.0
2017-Dec-13 08:00 300 20 5.4 7.0
2017-Dec-13 07:30 300 21 5.4 7.0
2017-Dec-13 07:00 290 21 5.4 7.0
2017-Dec-13 06:44 290 15 gusting 26 5.4 7.0 Showers in the vicinity.
2017-Dec-13 06:30 300 18 5.4 7.0 Light rain showers.
2017-Dec-13 06:07 300 17 gusting 27 5.4 7.0 Light rain showers.
2017-Dec-13 06:00 290 20 5.4 7.0 Light rain showers.
2017-Dec-13 05:30 280 20 5.4 7.0
2017-Dec-13 05:00 290 18 5.4 8.0
2017-Dec-13 04:30 290 18 5.4 7.0
2017-Dec-13 04:00 290 19 5.4 7.0
2017-Dec-13 03:30 290 19 5.4 6.0
2017-Dec-13 03:00 290 18 5.4 6.0
2017-Dec-13 02:30 280 20 5.4 7.0
2017-Dec-13 02:00 290 20 5.4 6.0
2017-Dec-13 01:30 290 22 5.4 6.0
2017-Dec-13 01:00 300 27 5.4 7.0
2017-Dec-13 00:30 300 25 5.4 6.0
2017-Dec-13 00:00 290 24 5.4 6.0